ZP4MNB-13 Weather Reports


time (UTC)temp
C
wind
direction
speed
KPH
gust
KPH
rain 1hr
cm
rain 24hr
cm
rain mn
cm
humidity
%
barometer
mb
20260509150201 13 45 12.9 20.9 0.00 0.00 0.05 98 1052.7
20260509150001 13 90 11.3 24.1 0.00 0.00 0.05 98 558.1
20260509145203 13 90 19.3 25.7 0.00 0.00 0.05 98 1054.2
20260509145003 13 90 11.3 32.2 0.00 0.00 0.05 98 1054.2
20260509144201 13 45 6.4 14.5 0.00 0.00 0.05 98 1054.2
20260509144001 13 45 11.3 32.2 0.00 0.00 0.05 98 1054.0
20260509143203 13 90 12.9 25.7 0.00 0.00 0.05 98 1052.9
20260509143003 35 90 6.4 20.9 0.00 0.00 0.05 35 1050.8
20260509142201 13 45 9.7 14.5 0.00 0.00 0.05 98 1051.2
20260509142001 14 180 9.7 25.7 0.00 0.00 0.05 98 1050.8
20260509141203 14 225 6.4 17.7 0.00 0.00 0.05 98 1049.8
20260509141003 14 135 9.7 25.7 0.00 0.00 0.05 98 1049.6
20260509140201 14 0 9.7 19.3 0.00 0.00 0.05 98 1049.4
20260509140002 14 45 11.3 30.6 0.00 0.00 0.05 98 1049.4
20260509135203 14 90 11.3 25.7 0.00 0.00 0.05 98 1048.5
20260509135003 15 90 9.7 25.7 0.00 0.00 0.05 98 1490.2
20260509134204 15 45 6.4 17.7 0.00 0.00 0.05 98 1047.9
20260509134003 15 180 9.7 35.4 0.00 0.00 0.05 98 1047.6
20260509133201 15 180 11.3 14.5 0.00 0.00 0.05 98 1046.9
20260509132202 15 90 12.9 17.7 0.00 0.00 0.05 98 1044.0
20260509132003 16 180 8.0 25.7 0.00 0.00 0.05 98 1043.6
20260509131203 15 135 9.7 19.3 0.00 0.00 0.05 98 1043.0
20260509131003 15 90 6.4 19.3 0.00 0.00 0.05 98 1043.3
20260509130201 15 90 8.0 20.9 0.00 0.00 0.05 98 1044.5
20260509130001 15 135 6.4 17.7 0.00 0.00 0.05 98 1044.4
20260509125203 15 90 6.4 12.9 0.00 0.00 0.05 98 1044.8
20260509125003 15 45 4.8 20.9 0.00 0.00 0.05 98 1044.7
20260509124201 15 90 3.2 6.4 0.00 0.00 0.05 98 1043.8
20260509124001 15 135 4.8 14.5 0.00 0.00 0.05 98 1043.6
20260509123203 15 135 3.2 6.4 0.00 0.00 0.05 98 1042.9
20260509123003 15 0 4.8 19.3 0.00 0.00 0.05 98 1042.9
20260509122201 15 90 4.8 9.7 0.00 0.00 0.05 98 1042.2
20260509122001 15 90 4.8 14.5 0.00 0.00 0.05 98 1042.3
20260509121203 15 90 4.8 8.0 0.00 0.00 0.05 98 1043.9
20260509121004 15 90 3.2 8.0 0.00 0.00 0.05 98 1044.2
20260509120205 15 45 1.6 6.4 0.00 0.00 0.05 98 1045.2
20260509120005 15 135 3.2 8.0 0.00 0.00 0.05 98 1045.4
20260509115201 15 45 0.0 0.0 0.00 0.00 0.05 98 1046.0
20260509115001 15 45 0.0 3.2 0.00 0.00 0.05 98 1046.1
20260509114203 15 0 0.0 3.2 0.00 0.00 0.05 98 1046.4
20260509114004 15 0 1.6 9.7 0.00 0.00 0.05 98 1046.6
20260509113201 15 180 1.6 6.4 0.00 0.00 0.05 98 1046.6
20260509113001 15 135 1.6 12.9 0.00 0.00 0.05 98 1046.6
20260509112204 15 45 1.6 8.0 0.00 0.00 0.05 98 1046.9
20260509112004 15 45 0.0 3.2 0.00 0.00 0.05 98 1047.0
20260509111201 15 90 1.6 3.2 0.00 0.00 0.05 98 1046.9
20260509111002 15 45 0.0 6.4 0.00 0.00 0.05 98 566.0
20260509110203 15 45 3.2 9.7 0.00 0.00 0.05 98 1046.6
20260509110004 15 45 3.2 9.7 0.00 0.00 0.05 98 1046.6
20260509105201 15 90 3.2 6.4 0.00 0.00 0.05 98 1046.8
20260509105002 15 90 3.2 8.0 0.00 0.00 0.05 98 1046.9
20260509104203 15 45 6.4 12.9 0.00 0.00 0.05 98 1046.8
20260509104003 15 90 4.8 14.5 0.00 0.00 0.05 98 1046.8
20260509103202 14 45 1.6 3.2 0.00 0.00 0.05 98 2318.6
20260509103002 14 45 3.2 6.4 0.00 0.00 0.05 98 1047.2
20260509102204 14 90 3.2 9.7 0.00 0.00 0.05 98 2442.8
20260509102004 14 45 3.2 9.7 0.00 0.00 0.05 98 2442.8
20260509101202 14 45 3.2 6.4 0.00 0.00 0.05 98 2442.8
20260509101002 14 45 1.6 6.4 0.00 0.00 0.05 98 2442.8
20260509100204 14 45 6.4 12.9 0.00 0.00 0.05 98 547.7
20260509100005 14 45 6.4 12.9 0.00 0.00 0.05 98 1046.4
20260509095202 14 90 8.0 14.5 0.00 0.00 0.05 98 2442.8
20260509095002 14 45 6.4 17.7 0.00 0.00 0.05 98 547.4
20260509094204 14 45 4.8 12.9 0.00 0.00 0.05 98 1045.8
20260509094004 14 45 4.8 17.7 0.00 0.00 0.05 98 2318.2
20260509093202 14 45 1.6 6.4 0.00 0.00 0.05 98 2450.5
20260509093002 14 90 1.6 6.4 0.00 0.00 0.05 98 548.2
20260509092204 14 45 0.0 1.6 0.00 0.00 0.05 98 2450.5
20260509092004 14 45 0.0 3.2 0.00 0.00 0.05 98 2450.5
20260509091202 14 90 0.0 0.0 0.00 0.00 0.05 98 2318.2
20260509091002 14 0 0.0 0.0 0.00 0.00 0.05 98 2450.5
20260509090204 14 0 0.0 0.0 0.00 0.00 0.05 98 1336.0
20260509090004 14 0 0.0 3.2 0.00 0.00 0.05 98 547.6
20260509085202 14 0 0.0 0.0 0.00 0.00 0.05 98 2898.0
20260509085002 14 0 0.0 3.2 0.00 0.00 0.05 98 547.6
20260509084204 14 45 3.2 3.2 0.00 0.00 0.05 98 1046.8
20260509084004 14 45 0.0 3.2 0.00 0.00 0.05 98 1046.8
20260509083202 14 0 0.0 0.0 0.00 0.00 0.05 98 2450.5
20260509083002 14 0 0.0 1.6 0.00 0.00 0.05 98 1047.2
20260509082204 14 45 0.0 1.6 0.00 0.00 0.05 98 2450.5
20260509082004 14 45 1.6 6.4 0.00 0.00 0.05 98 2456.4
20260509081202 14 45 0.0 0.0 0.00 0.00 0.05 98 2317.7
20260509081002 14 0 0.0 0.0 0.00 0.00 0.05 98 2450.6
20260509080204 14 45 1.6 3.2 0.00 0.00 0.05 98 2317.7
20260509080004 14 45 1.6 3.2 0.00 0.00 0.05 98 1392.9
20260509075202 14 45 0.0 1.6 0.03 0.00 0.05 98 546.8
20260509075002 14 45 0.0 0.0 0.03 0.00 0.05 98 2317.8
20260509074204 14 0 0.0 0.0 0.03 0.00 0.05 98 2450.5
20260509074004 14 0 0.0 6.4 0.03 0.00 0.05 98 2317.7
20260509073202 14 45 0.0 6.4 0.03 0.00 0.05 98 1046.8
20260509073002 14 0 0.0 6.4 0.03 0.00 0.05 98 2317.9
20260509072204 14 135 0.0 3.2 0.03 0.00 0.05 98 1046.2
20260509072004 14 180 0.0 3.2 0.03 0.00 0.05 98 2318.0
20260509071202 14 0 0.0 0.0 0.03 0.00 0.05 98 2450.5
20260509071002 14 45 0.0 3.2 0.03 0.00 0.05 98 2450.5
20260509070204 14 0 0.0 1.6 0.03 0.00 0.05 98 1046.1
20260509070004 14 45 0.0 0.0 0.00 0.00 0.03 98 2318.3
20260509065202 14 45 1.6 3.2 0.00 0.00 0.03 98 1046.1
20260509065002 14 90 0.0 3.2 0.00 0.00 0.03 98 2318.4
20260509064204 14 0 0.0 0.0 0.00 0.00 0.03 98 3239.8
20260509064004 14 0 0.0 0.0 0.00 0.00 0.03 98 2450.5
20260509063202 14 0 0.0 0.0 0.00 0.00 0.03 98 2450.5
20260509063002 14 0 0.0 0.0 0.00 0.00 0.03 98 2450.5
20260509062204 14 0 0.0 0.0 0.00 0.00 0.03 98 2318.4
20260509062004 14 0 0.0 6.4 0.00 0.00 0.03 98 1046.1
20260509061202 14 45 3.2 6.4 0.00 0.00 0.03 98 1046.7
20260509061002 14 45 1.6 6.4 0.00 0.00 0.03 98 1046.0
20260509060204 14 0 0.0 0.0 0.00 0.00 0.03 98 1046.2
20260509060004 14 0 0.0 0.0 0.00 0.00 0.03 98 3239.8
20260509055202 14 0 1.6 3.2 0.00 0.00 0.03 98 2442.8
20260509055002 14 270 0.0 3.2 0.00 0.00 0.03 98 2442.8
20260509054204 14 45 0.0 0.0 0.00 0.00 0.03 98 1045.8
20260509054004 14 45 1.6 8.0 0.00 0.00 0.03 98 2442.8
20260509053202 14 45 4.8 8.0 0.00 0.00 0.03 98 1046.1
20260509053002 14 45 0.0 3.2 0.00 0.00 0.03 98 561.7
20260509052204 14 0 0.0 0.0 0.00 0.00 0.03 98 1845.0
20260509052004 14 90 0.0 3.2 0.00 0.00 0.03 98 2450.5
20260509051202 14 0 0.0 0.0 0.00 0.00 0.03 98 1046.7
20260509051002 14 180 0.0 3.2 0.00 0.00 0.03 98 3239.8
20260509050204 14 315 0.0 1.6 0.00 0.00 0.03 98 1047.0
20260509050004 14 0 0.0 1.6 0.00 0.00 0.03 98 560.1
20260509045202 14 45 0.0 1.6 0.00 0.00 0.03 98 2317.6
20260509045002 14 45 0.0 3.2 0.00 0.00 0.03 98 559.9
20260509044204 14 0 0.0 1.6 0.00 0.00 0.03 98 2450.5
20260509044004 14 0 0.0 3.2 0.00 0.00 0.03 98 2450.5
20260509043202 14 0 0.0 0.0 0.00 0.00 0.03 98 1942.3
20260509043002 14 0 0.0 3.2 0.00 0.00 0.03 98 1047.5
20260509042205 14 45 0.0 3.2 0.00 0.00 0.03 98 1047.5
20260509042004 14 90 1.6 6.4 0.00 0.00 0.03 98 1047.5
20260509041202 14 45 0.0 0.0 0.00 0.00 0.03 98 3239.9
20260509041002 14 45 1.6 3.2 0.00 0.00 0.03 98 2450.5
20260509040204 14 0 0.0 0.0 0.00 0.00 0.03 98 1047.1
20260509040005 14 45 0.0 3.2 0.00 0.00 0.03 98 2450.5
20260509035104 14 45 0.0 0.0 0.03 0.00 0.03 98 2442.8
20260509035000 14 45 1.6 6.4 0.03 0.00 0.03 98 1069.5
20260509034203 14 135 0.0 3.2 0.03 0.00 0.03 98 2442.8
20260509034003 14 45 0.0 1.6 0.03 0.00 0.03 98 2442.8
20260509033204 14 45 0.0 3.2 0.03 0.00 0.03 98 2318.2
20260509033004 14 225 0.0 3.2 0.03 0.00 0.03 98 2318.2
20260509032202 14 45 0.0 1.6 0.00 0.00 0.00 98 1068.4
20260509032002 14 90 0.0 1.6 0.00 0.00 0.00 98 2318.4
20260509031204 14 90 0.0 3.2 0.00 0.00 0.00 98 1046.3
20260509031004 14 0 0.0 1.6 0.00 0.00 0.00 98 1046.3
20260509030105 14 0 0.0 1.6 0.00 0.00 0.00 98 1069.0
20260509030000 14 135 0.0 3.2 0.00 0.00 0.00 98 2318.1
20260509025203 14 135 0.0 0.0 0.00 0.00 0.91 98 1046.2
20260509025003 14 45 0.0 0.0 0.00 0.00 0.91 98 2450.5
20260509024104 14 0 0.0 0.0 0.00 0.00 0.91 98 1393.0
20260509024000 14 45 0.0 0.0 0.00 0.00 0.91 98 1392.9
20260509023203 14 0 0.0 0.0 0.00 0.00 0.91 98 2450.5
20260509023003 14 0 0.0 1.6 0.00 0.00 0.91 98 1071.9
20260509022104 14 45 3.2 3.2 0.00 0.00 0.91 98 1048.4
20260509022000 14 45 4.8 8.0 0.00 0.00 0.91 98 2318.1
20260509021203 14 45 0.0 1.6 0.00 0.00 0.91 98 1046.6
20260509021003 14 0 3.2 12.9 0.00 0.00 0.91 98 2316.8
20260509020104 14 180 1.6 1.6 0.00 0.00 0.91 98 1047.1
20260509020000 14 315 0.0 3.2 0.00 0.00 0.91 98 2318.2
20260509015104 14 90 0.0 0.0 0.00 0.00 0.91 98 2318.2
20260509015000 14 0 0.0 1.6 0.00 0.00 0.91 98 1046.0
20260509014104 14 270 0.0 1.6 0.00 0.00 0.91 98 1047.0
20260509014000 14 0 0.0 3.2 0.00 0.00 0.91 98 2318.1
20260509013203 14 0 0.0 0.0 0.00 0.00 0.91 98 2450.5
20260509013003 14 0 0.0 1.6 0.00 0.00 0.91 98 547.8
20260509012104 14 0 0.0 3.2 0.00 0.00 0.91 98 1046.9
20260509012000 14 0 0.0 3.2 0.00 0.00 0.91 98 1046.9
20260509011203 14 315 0.0 1.6 0.00 0.00 0.91 98 2450.5
20260509011005 14 315 0.0 0.0 0.00 0.00 0.91 98 2450.5
20260509010205 13 0 0.0 0.0 0.00 0.00 0.91 98 2450.6
20260509010004 13 0 0.0 6.4 0.00 0.00 0.91 98 1185.5
20260509005203 14 45 0.0 3.2 0.00 0.00 0.91 98 548.2
20260509005002 14 0 0.0 0.0 0.00 0.00 0.91 98 1480.6
20260509004204 14 45 0.0 0.0 0.00 0.00 0.91 98 2450.5
20260509004004 14 45 0.0 1.6 0.00 0.00 0.91 98 1046.7
20260509003205 14 0 0.0 0.0 0.00 0.00 0.91 98 2318.1
20260509003004 14 0 0.0 0.0 0.00 0.00 0.91 98 2318.1
20260509002205 14 0 0.0 0.0 0.00 0.00 0.91 98 2318.1
20260509002005 14 0 0.0 0.0 0.00 0.00 0.91 98 2450.5
20260509001202 14 0 0.0 0.0 0.00 0.00 0.91 98 2450.5
20260509001003 14 0 0.0 3.2 0.00 0.00 0.91 98 2450.5
20260509000204 14 180 0.0 3.2 0.00 0.00 0.91 98 2450.5
20260509000004 14 225 0.0 0.0 0.00 0.00 0.91 98 1182.4
20260508235206 14 0 0.0 1.6 0.03 0.00 0.91 98 2318.1
20260508235005 14 0 0.0 3.2 0.03 0.00 0.91 98 2450.5
20260508234202 14 90 1.6 6.4 0.03 0.00 0.91 98 2318.3
20260508233205 14 45 0.0 3.2 0.03 0.00 0.91 98 2442.8
20260508233005 14 45 0.0 6.4 0.03 0.00 0.91 98 1045.6
20260508232202 14 45 0.0 0.0 0.03 0.00 0.91 98 2318.6
20260508232003 14 0 0.0 0.0 0.03 0.00 0.91 98 2442.8
20260508231204 14 0 0.0 0.0 0.03 0.00 0.91 98 1045.9
20260508231004 14 315 0.0 0.0 0.00 0.00 0.89 98 1048.5
20260508230203 14 0 0.0 0.0 0.00 0.00 0.89 98 2318.7
20260508230003 14 0 0.0 1.6 0.00 0.00 0.89 98 2442.8
20260508225205 14 0 0.0 0.0 0.00 0.00 0.89 98 2442.8
20260508225005 14 180 0.0 0.0 0.00 0.00 0.89 98 2442.8
20260508224204 14 0 0.0 0.0 0.00 0.00 0.89 98 548.6
20260508224004 14 0 0.0 1.6 0.00 0.00 0.89 98 2442.8
20260508223105 14 0 0.0 0.0 0.00 0.00 0.89 98 1045.6
20260508223000 14 0 0.0 0.0 0.00 0.00 0.89 98 2319.7
20260508222204 14 0 0.0 0.0 0.00 0.00 0.89 98 1045.7
20260508222004 14 0 0.0 3.2 0.00 0.00 0.89 98 563.0
20260508221203 14 270 0.0 1.6 0.00 0.00 0.89 98 562.9
20260508221004 14 315 0.0 1.6 0.00 0.00 0.89 98 1045.8
20260508220104 14 315 1.6 3.2 0.00 0.00 0.89 98 1046.0
20260508220000 14 270 0.0 3.2 0.00 0.00 0.89 98 2318.3
20260508215104 14 0 0.0 0.0 0.00 0.00 0.89 98 1182.4
20260508215000 14 45 0.0 0.0 0.00 0.00 0.89 98 2442.8
20260508214203 14 45 0.0 0.0 0.00 0.00 0.89 98 2456.4
20260508214002 14 0 0.0 3.2 0.00 0.00 0.89 98 546.9
20260508213205 14 0 0.0 1.6 0.00 0.00 0.89 98 546.1
20260508213005 14 90 0.0 1.6 0.00 0.00 0.89 98 2442.8
20260508212105 14 0 0.0 0.0 0.00 0.00 0.89 98 2317.8
20260508212000 14 0 0.0 6.4 0.00 0.00 0.89 98 2317.8
20260508211204 14 0 0.0 0.0 0.00 0.00 0.89 98 1068.1
20260508211004 14 45 0.0 3.2 0.00 0.00 0.89 98 1045.6
20260508210105 14 90 0.0 1.6 0.00 0.00 0.89 98 2318.0
20260508210000 14 45 0.0 3.2 0.05 0.00 0.89 98 2318.0
20260508205204 14 90 1.6 3.2 0.05 0.00 0.89 98 562.0
20260508205004 14 45 0.0 3.2 0.05 0.00 0.89 98 1044.9
20260508204204 14 45 1.6 3.2 0.05 0.00 0.89 98 1045.0
20260508204004 14 90 0.0 6.4 0.05 0.00 0.89 98 1045.0
20260508203206 14 45 1.6 3.2 0.05 0.00 0.89 98 1045.2
20260508203005 14 90 1.6 6.4 0.05 0.00 0.89 98 1045.4
20260508202203 14 90 0.0 3.2 0.05 0.00 0.89 98 1045.2
20260508202003 14 135 1.6 9.7 0.05 0.00 0.89 98 1045.3
20260508201205 14 270 4.8 8.0 0.05 0.00 0.89 98 1045.0
20260508201005 14 0 0.0 3.2 0.03 0.00 0.86 98 1044.9
20260508200203 14 225 0.0 3.2 0.00 0.00 0.84 98 1044.7
20260508200003 14 90 0.0 3.2 0.00 0.00 0.84 98 1044.4
20260508195205 14 0 0.0 1.6 0.15 0.00 0.84 98 1044.3
20260508195005 15 270 0.0 3.2 0.13 0.00 0.81 98 1044.4
20260508194203 15 180 4.8 9.7 0.05 0.00 0.74 98 1044.1
20260508194003 15 270 3.2 8.0 0.03 0.00 0.71 98 1043.7
20260508193205 15 90 3.2 6.4 0.00 0.00 0.69 98 1044.2
20260508193005 15 270 1.6 8.0 0.00 0.00 0.69 98 1043.9
20260508192203 15 45 0.0 3.2 0.00 0.00 0.69 98 1043.1
20260508192003 15 90 0.0 1.6 0.00 0.00 0.69 98 2319.1
20260508191205 15 45 1.6 3.2 0.00 0.00 0.69 98 1041.9
20260508191005 15 45 0.0 3.2 0.00 0.00 0.69 98 1041.6
20260508190203 15 135 1.6 6.4 0.00 0.00 0.69 98 1040.0
20260508190003 15 45 1.6 6.4 0.00 0.00 0.69 98 1039.7
20260508185105 15 0 3.2 9.7 0.08 0.00 0.69 98 1039.2
20260508185000 15 90 3.2 9.7 0.08 0.00 0.69 98 1039.4
20260508184204 15 45 6.4 8.0 0.00 0.00 0.61 98 1040.0
20260508184003 15 180 1.6 8.0 0.00 0.00 0.61 98 1040.4
20260508183205 15 135 4.8 14.5 0.00 0.00 0.61 98 1040.1
20260508183005 15 45 3.2 9.7 0.00 0.00 0.61 98 1039.9
20260508182203 15 0 1.6 3.2 0.00 0.00 0.61 98 1039.7
20260508182003 15 90 3.2 12.9 0.00 0.00 0.61 98 572.6
20260508181205 15 0 1.6 6.4 0.00 0.00 0.61 98 1040.5
20260508181005 15 90 3.2 12.9 0.00 0.00 0.61 98 1040.5
20260508180203 15 315 1.6 6.4 0.00 0.00 0.61 98 1040.7
20260508180003 15 135 3.2 9.7 0.00 0.00 0.61 98 1040.7
20260508175205 15 135 4.8 6.4 0.05 0.00 0.61 98 1041.2
20260508175005 15 90 3.2 8.0 0.05 0.00 0.61 98 1041.2
20260508174105 15 0 3.2 8.0 0.05 0.00 0.61 98 1041.5
20260508174001 15 45 3.2 14.5 0.05 0.00 0.61 98 1041.5
20260508173204 15 180 1.6 6.4 0.03 0.00 0.58 98 1041.4
20260508173004 15 0 4.8 14.5 0.03 0.00 0.58 98 1041.3
20260508172222 15 135 3.2 6.4 0.03 0.00 0.58 98 1040.8
20260508172004 15 180 4.8 9.7 0.03 0.00 0.58 98 1040.8
20260508171105 15 45 3.2 12.9 0.03 0.00 0.58 98 1040.8
20260508171001 15 135 4.8 14.5 0.03 0.00 0.58 98 1040.9
20260508170204 15 90 6.4 12.9 0.03 0.00 0.58 98 1041.2
20260508170004 15 45 4.8 14.5 0.00 0.00 0.56 98 1041.3
20260508165204 15 45 3.2 8.0 0.05 0.00 0.51 98 1041.8
20260508165004 15 90 4.8 12.9 0.05 0.00 0.51 98 1041.8
20260508164205 15 135 6.4 9.7 0.05 0.00 0.51 98 1041.5
20260508164005 15 180 4.8 24.1 0.05 0.00 0.51 98 1041.3
20260508163203 15 90 4.8 6.4 0.03 0.00 0.48 98 1041.7
20260508163003 15 45 3.2 8.0 0.03 0.00 0.48 98 1041.8
20260508162203 15 135 3.2 9.7 0.03 0.00 0.48 98 568.6
20260508162003 15 180 6.4 14.5 0.03 0.00 0.48 98 1042.3
20260508161205 15 90 6.4 14.5 0.03 0.00 0.48 98 1042.5
20260508160204 14 45 8.0 14.5 0.00 0.00 0.46 98 1043.7
20260508160004 14 135 6.4 24.1 0.00 0.00 0.46 98 1043.6
20260508155105 15 90 8.0 24.1 0.38 0.00 0.43 98 1043.3
20260508155001 15 180 6.4 12.9 0.38 0.00 0.43 98 1043.1
20260508154204 15 90 3.2 8.0 0.38 0.00 0.43 98 1042.8
20260508154004 15 135 4.8 14.5 0.38 0.00 0.43 98 1042.7
20260508153105 15 90 6.4 17.7 0.38 0.00 0.43 98 1042.5
20260508153001 15 180 6.4 14.5 0.38 0.00 0.43 98 1042.4
20260508152204 15 315 4.8 8.0 0.38 0.00 0.43 98 1042.7
20260508152004 15 90 8.0 20.9 0.36 0.00 0.41 98 1042.7
20260508151105 15 90 4.8 9.7 0.20 0.00 0.25 98 1044.6
20260508151001 15 90 6.4 19.3 0.13 0.00 0.18 98 1045.0